User: anonymous   Login
Location: R�o Medio
(42.4667°N, 3.0167°W)
Time: 09:17:17
(UTC+00:00)
Language:

HJ-1C - Orbit

View from above orbital plane
View from above orbital plane
View from above satellite
View from above satellite

Ground track
Ground track

The orbit data is extracted from the following two-line orbital elements,

1 38997U 12064A   20157.81497830  .00002074  00000-0  50061-4 0  9993
2 38997  97.1538 188.1781 0011313  56.3974  54.0412 15.42275034423994
Epoch (UTC): 05 June 2020 19:33:34
Eccentricity: 0.0011313
inclination: 97.1538°
perigee height: 431 km
apogee height: 447 km
right ascension of ascending node: 188.1781°
argument of perigee: 56.3974°
revolutions per day: 15.42275034
mean anomaly at epoch: 54.0412°
orbit number at epoch: 42399

The dashed part of the orbit path shows where the satellite is in the earth's shadow,  

DLR